Location: Bluff Heights
(33.7692°N, 118.1592°W)
Time: 12:59:25
(UTC+00:00)

S-56A Canister/Altair - Pass Details

Date: 25 July 2021
Orbit: 632 x 2500 km, 38.9° (Epoch: 25 September)

Event Time Altitude Azimuth Distance (km) Brightness Sun altitude
Rises 03:17:40 0° 274° (W) 6,176 13.6 -4.4°
Reaches altitude 10° 03:21:50 10° 276° (W) 5,153 13.1 -5.1°
Maximum altitude 03:36:46 70° 360° (N) 2,276 10.0 -7.9°
Drops below altitude 10° 03:47:55 10° 84° (E) 3,963 10.7 -9.9°
Enters shadow 03:50:02 - 86° (E) 4,537 11.0 -10.2°
